[[{"header":{"parameterUnit":"m.s-1","parameterCategory":1,"la1":30.2991,"la2":30.254,"lo1":-89.0895,"lo2":-89.0444,"dy":0.0017,"dx":0.0017,"nx":28,"ny":28,"refTime":"2023-11-11T09:00:00:Z","depth":0,"parameterNumber":2,"parameterNumberName":"U-component_of_WINDS"},"data":[0,0,0,0,0,0,0,0,0,0,0,0,0,0,0,0,0,0,0,0,0,0,0,0,0,0,0,0,0,0,0,0,0,0,0,0,0,0,0,0,0,0,0,0,0,0,0,0,0,0,0,0,0,0,0,0,0,0,-4.1164,-4.1164,0,-4.1221,-4.1222,-4.1222,-4.1131,-4.1128,-4.1125,-4.1122,-4.1181,-4.1185,-4.1189,0,0,0,0,0,0,0,0,0,0,0,0,0,-4.0974,-4.0978,-4.1164,-4.1164,-4.1165,-4.1221,-4.1222,-4.1222,-4.1132,-4.1128,-4.1124,-4.112,-4.1179,-4.1184,-4.119,0,0,0,0,0,0,0,0,0,0,0,0,0,-4.1047,-4.098,-4.1163,-4.1126,-4.1124,-4.1221,-4.1222,-4.1223,-4.1133,-4.1128,-4.1123,-4.1119,-4.1177,-4.1184,-4.119,-4.1326,0,0,-4.1211,-4.1214,0,0,0,0,0,0,0,0,-4.1043,-4.1054,-4.1131,-4.1129,-4.1126,-4.1164,-4.1176,-4.1257,-4.1134,-4.1129,-4.1122,-4.1116,-4.1179,-4.1185,-4.1206,-4.1329,-4.1331,-4.1212,-4.1216,-4.1219,-4.122,0,0,0,0,0,0,0,-4.1038,-4.1051,-4.1186,-4.1132,-4.1129,-4.1107,-4.1112,-4.1191,-4.118,-4.1129,-4.1123,-4.1131,-4.1177,-4.12,-4.1207,-4.1332,-4.1211,-4.1217,-4.1222,-4.1224,-4.1569,-4.1574,0,0,0,0,0,0,-4.1037,-4.1047,-4.1184,-4.1188,-4.1072,-4.1114,-4.112,-4.1157,-4.1179,-4.1177,-4.1135,-4.1126,-4.1191,-4.1199,-4.1209,-4.1369,-4.1219,-4.1225,-4.1229,-4.1564,-4.157,-4.1576,0,0,0,0,0,0,-4.1034,-4.105,-4.1182,-4.1116,-4.1131,-4.1122,-4.1165,-4.116,-4.1184,-4.1183,-4.118,-4.1161,-4.1187,-4.1199,-4.1298,-4.137,-4.1228,-4.1234,-4.1558,-4.1566,-4.1573,-4.1691,0,0,0,0,0,0,-4.1029,-4.105,-4.1102,-4.1118,-4.1135,-4.1271,-4.1169,-4.1165,-4.1196,-4.1185,-4.1207,-4.1206,-4.1185,-4.1288,-4.1304,-4.1377,-4.1239,-4.1551,-4.1561,-4.157,-4.1681,-4.1702,-4.172,0,0,0,0,0,-4.1022,-4.1133,-4.1105,-4.1122,-4.1199,-4.1275,-4.1285,-4.1259,-4.1202,-4.1254,-4.1253,-4.1205,-4.1359,-4.1299,-4.1316,-4.1392,-4.1547,-4.1558,-4.157,-4.1672,-4.1698,-4.172,0,0,0,0,0,0,-4.1125,-4.1134,-4.1103,-4.1222,-4.1249,-4.126,-4.1324,-4.1287,-4.133,-4.1318,-4.1283,-4.1289,-4.1395,-4.1403,-4.1336,-4.1524,-4.1443,-4.1459,-4.1515,-4.154,-4.1559,-4.1555,-4.1245,0,0,0,0,0,-4.1162,-4.1223,-4.1227,-4.1332,-4.1346,-4.1334,-4.1365,-4.1343,-4.1369,-4.1379,-4.1386,-4.1413,-4.1467,-4.1504,-4.1553,-4.1681,-4.1685,-4.1742,-4.1761,-4.1777,-4.1791,-4.1859,-4.1885,-4.1613,-4.1613,-4.1613,0,0,-4.1238,-4.125,-4.1291,-4.1353,-4.137,-4.1434,-4.1343,-4.1415,-4.1462,-4.139,-4.1484,-4.1489,-4.1517,-4.1631,-4.1681,-4.1641,-4.1867,-4.1792,-4.1805,-4.181,-4.1874,-4.19,-4.1922,-4.1621,-4.162,-4.1619,0,0,-4.141,-4.1425,-4.1514,-4.1534,-4.1562,-4.1552,-4.1574,-4.159,-4.1591,-4.1685,-4.1632,-4.1687,-4.1781,-4.1803,-4.1827,-4.2006,-4.1964,-4.2023,-4.2126,-4.2193,-4.2214,-4.2233,-4.2297,-4.2321,-4.2037,-4.2037,-4.2037,0,-4.1501,-4.1595,-4.1564,-4.164,-4.1668,-4.1606,-4.1696,-4.1716,-4.1759,-4.178,-4.1734,-4.1851,-4.1865,-4.1983,-4.2027,-4.2048,-4.2071,-4.2021,-4.2214,-4.2232,-4.2249,-4.231,-4.2334,-4.2044,-4.2044,-4.2043,-4.2042,0,-4.1706,-4.1772,-4.1841,-4.1884,-4.192,-4.2002,-4.1983,-4.2023,-4.1997,-4.1993,-4.2088,-4.2103,-4.2155,-4.218,-4.2156,-4.2295,-4.2269,-4.2219,-4.2137,-4.2283,-4.2339,-4.2362,-4.2055,-4.2052,-4.205,-4.2048,0,0,-4.1946,-4.197,-4.1996,-4.2015,-4.2041,-4.2091,-4.217,-4.222,-4.2256,-4.2287,-4.2352,-4.2433,-4.2387,-4.2414,-4.2391,-4.2449,-4.259,-4.2392,-4.2392,-4.2428,-4.2745,-4.2783,-4.281,-4.2562,-4.2566,-4.257,-4.2743,0,-4.2117,-4.2253,-4.2228,-4.2361,-4.2421,-4.2363,-4.2431,-4.2455,-4.2452,-4.2503,-4.2499,-4.2558,-4.2492,-4.2507,-4.2563,-4.2562,-4.2654,-4.2549,-4.2623,-4.2626,-4.2618,-4.284,-4.2881,-4.3043,-4.2764,-4.2768,-4.2771,0,-4.2335,-4.2375,-4.2514,-4.253,-4.2555,-4.2617,-4.2661,-4.271,-4.2735,-4.2729,-4.2759,-4.2725,-4.2803,-4.2719,-4.2826,-4.2756,-4.2784,-4.2788,-4.2794,-4.28,-4.2708,-4.2853,-4.3094,-4.3119,-4.2805,-4.2803,-4.28,0,-4.2496,-4.2585,-4.2679,-4.2697,-4.2718,-4.2763,-4.2774,-4.2794,-4.2826,-4.2864,-4.2885,-4.2932,-4.2958,-4.2995,-4.2974,-4.2915,-4.3085,-4.3,-4.3082,-4.3083,-4.3121,-4.3119,-4.3371,-4.3139,-4.3138,-4.3138,-4.3137,0,-4.2691,-4.2778,-4.2752,-4.281,-4.2907,-4.2876,-4.2972,-4.2975,-4.2994,-4.3051,-4.3003,-4.3058,-4.3027,-4.308,-4.3064,-4.3155,-4.3167,-4.3164,-4.3159,-4.3169,-4.317,-4.3188,-4.3176,-4.3144,-4.3143,-4.3142,-4.3141,0,-4.2888,-4.2873,-4.2973,-4.2984,-4.2989,-4.306,-4.3069,-4.3124,-4.3117,-4.3191,-4.3206,-4.3196,-4.3255,-4.3238,-4.3302,-4.3291,-4.3407,-4.3387,-4.3399,-4.3394,-4.3478,-4.347,-4.3751,-4.3786,-4.3531,-4.3533,-4.3535,0,-4.3013,-4.3079,-4.3098,-4.3133,-4.3147,-4.3205,-4.3237,-4.3209,-4.3244,-4.3277,-4.3328,-4.3383,-4.3426,-4.3523,-4.3521,-4.357,-4.3551,-4.3646,-4.3559,-4.3566,-4.3553,-4.355,-4.3556,-4.3664,-4.3667,-4.367,-4.3671,0,-4.3237,-4.3227,-4.3275,-4.3322,-4.3362,-4.3397,-4.3427,-4.3459,-4.3432,-4.3475,-4.3535,-4.3568,-4.3634,-4.3689,-4.3734,-4.3744,-4.3704,-4.3699,-4.3721,-4.3732,-4.3736,-4.3735,-4.3447,-4.3693,-4.3691,-4.3689,-4.3688,-4.3687,-4.3402,-4.3458,-4.348,-4.3536,-4.3556,-4.3585,-4.3637,-4.3636,-4.3686,-4.3738,-4.3717,-4.3787,-4.3809,-4.3864,-4.3881,-4.3934,-4.3898,-4.3929,-4.3937,-4.3946,-4.3957,-4.3727,-4.3942,-4.3941,-4.3941,-4.394,-4.394,0,-4.3624,-4.3635,-4.3687,-4.3731,-4.3775,-4.3733,-4.3764,-4.3804,-4.3865,-4.389,-4.3932,-4.4002,-4.4055,-4.4057,-4.4107,-4.4149,-4.4132,-4.4163,-4.416,-4.4163,-4.3986,-4.3962,-4.4176,-4.4176,-4.4176,-4.4176,-4.4176,-4.4176,-4.3745,-4.3838,-4.383,-4.3931,-4.3941,-4.4009,-4.4031,-4.4057,-4.4077,-4.4156,-4.42,-4.4201,-4.4216,-4.4267,-4.4314,-4.4313,-4.4333,-4.4372,-4.4364,-4.4199,-4.4176,-4.4153,-4.4131,-4.4377,-4.4377,-4.4537,-4.4538,-4.4539]},{"header":{"parameterUnit":"m.s-1","parameterCategory":1,"la1":30.2991,"la2":30.254,"lo1":-89.0895,"lo2":-89.0444,"dy":0.0017,"dx":0.0017,"nx":28,"ny":28,"refTime":"2023-11-11T09:00:00:Z","depth":0,"parameterNumber":3,"parameterNumberName":"V-component_of_WINDS"},"data":[0,0,0,0,0,0,0,0,0,0,0,0,0,0,0,0,0,0,0,0,0,0,0,0,0,0,0,0,0,0,0,0,0,0,0,0,0,0,0,0,0,0,0,0,0,0,0,0,0,0,0,0,0,0,0,0,0,0,-4.6411,-4.6411,0,-4.6439,-4.6439,-4.6439,-4.6384,-4.6382,-4.638,-4.6379,-4.6405,-4.6407,-4.641,0,0,0,0,0,0,0,0,0,0,0,0,0,-4.6307,-4.6309,-4.6411,-4.6411,-4.6411,-4.6439,-4.6439,-4.6439,-4.6384,-4.6382,-4.638,-4.6378,-4.6404,-4.6407,-4.641,0,0,0,0,0,0,0,0,0,0,0,0,0,-4.6345,-4.631,-4.6411,-4.6387,-4.6386,-4.6438,-4.6439,-4.6439,-4.6385,-4.6382,-4.6379,-4.6377,-4.6403,-4.6407,-4.641,-4.6487,0,0,-4.6421,-4.6423,0,0,0,0,0,0,0,0,-4.6343,-4.6349,-4.639,-4.6389,-4.6387,-4.6405,-4.6412,-4.6455,-4.6386,-4.6385,-4.6379,-4.6376,-4.6407,-4.641,-4.6421,-4.6488,-4.6489,-4.6422,-4.6424,-4.6425,-4.6426,0,0,0,0,0,0,0,-4.634,-4.6347,-4.6422,-4.6391,-4.6389,-4.6374,-4.6377,-4.642,-4.6411,-4.6385,-4.6381,-4.6385,-4.6406,-4.6418,-4.6421,-4.6489,-4.6421,-4.6425,-4.6427,-4.6428,-4.6618,-4.6621,0,0,0,0,0,0,-4.6341,-4.6346,-4.6421,-4.6423,-4.6358,-4.6379,-4.6381,-4.6402,-4.641,-4.6409,-4.6387,-4.6382,-4.6413,-4.6417,-4.6422,-4.6511,-4.6425,-4.6429,-4.6431,-4.6615,-4.6619,-4.6622,0,0,0,0,0,0,-4.6339,-4.6348,-4.642,-4.6383,-4.6391,-4.6383,-4.6407,-4.6404,-4.6416,-4.6412,-4.641,-4.6402,-4.6411,-4.6417,-4.6471,-4.6511,-4.643,-4.6433,-4.6612,-4.6616,-4.662,-4.669,0,0,0,0,0,0,-4.6336,-4.6348,-4.6378,-4.6384,-4.6393,-4.6469,-4.641,-4.6407,-4.6423,-4.6417,-4.6425,-4.6424,-4.641,-4.6466,-4.6474,-4.6515,-4.6436,-4.6608,-4.6614,-4.6619,-4.6684,-4.6696,-4.6706,0,0,0,0,0,-4.6333,-4.6396,-4.6379,-4.6389,-4.643,-4.6471,-4.6476,-4.6459,-4.6426,-4.6456,-4.6453,-4.6424,-4.6506,-4.6472,-4.6481,-4.6523,-4.6605,-4.6612,-4.6618,-4.6679,-4.6694,-4.6706,0,0,0,0,0,0,-4.6394,-4.6396,-4.6378,-4.6446,-4.6459,-4.6462,-4.6498,-4.6476,-4.6498,-4.6491,-4.6468,-4.647,-4.6528,-4.6531,-4.6493,-4.6596,-4.655,-4.6558,-4.6592,-4.6606,-4.6618,-4.6615,-4.6439,0,0,0,0,0,-4.6415,-4.645,-4.6449,-4.6509,-4.6516,-4.6507,-4.6524,-4.6509,-4.6522,-4.6527,-4.6528,-4.654,-4.6568,-4.6588,-4.6614,-4.6684,-4.6684,-4.6717,-4.6729,-4.6738,-4.6745,-4.6781,-4.6796,-4.6643,-4.6643,-4.6643,0,0,-4.646,-4.6465,-4.6488,-4.6521,-4.653,-4.6564,-4.6512,-4.6551,-4.6576,-4.6532,-4.6583,-4.6584,-4.6596,-4.6659,-4.6686,-4.6663,-4.6788,-4.6746,-4.6754,-4.6756,-4.679,-4.6804,-4.6817,-4.6648,-4.6647,-4.6646,0,0,-4.6558,-4.6567,-4.6616,-4.6626,-4.664,-4.6632,-4.6644,-4.6651,-4.665,-4.6701,-4.6669,-4.6698,-4.6747,-4.6757,-4.6769,-4.687,-4.6843,-4.6879,-4.6937,-4.6973,-4.6985,-4.6995,-4.703,-4.7043,-4.6886,-4.6887,-4.6887,0,-4.6612,-4.6664,-4.6645,-4.6686,-4.6701,-4.6664,-4.6713,-4.6723,-4.6744,-4.6755,-4.6728,-4.6789,-4.6795,-4.6858,-4.6883,-4.6894,-4.6905,-4.6877,-4.6985,-4.6995,-4.7005,-4.7038,-4.7051,-4.6891,-4.689,-4.689,-4.6889,0,-4.6728,-4.6764,-4.6802,-4.6824,-4.6843,-4.6889,-4.6875,-4.6897,-4.6881,-4.6876,-4.6927,-4.6932,-4.6958,-4.6972,-4.6957,-4.7033,-4.7018,-4.6989,-4.6941,-4.7024,-4.7054,-4.7067,-4.6897,-4.6895,-4.6894,-4.6893,0,0,-4.6866,-4.6876,-4.689,-4.6899,-4.6911,-4.6938,-4.6981,-4.7007,-4.7025,-4.7041,-4.7075,-4.7118,-4.7091,-4.7104,-4.7089,-4.712,-4.7198,-4.7086,-4.7086,-4.7106,-4.7281,-4.7302,-4.7318,-4.7181,-4.7183,-4.7185,-4.728,0,-4.6963,-4.7037,-4.7021,-4.7094,-4.7126,-4.7091,-4.7128,-4.7139,-4.7135,-4.7161,-4.7157,-4.7187,-4.7149,-4.7157,-4.7186,-4.7183,-4.7233,-4.7176,-4.7212,-4.7213,-4.7209,-4.7334,-4.7357,-4.7446,-4.7292,-4.7294,-4.7295,0,-4.7086,-4.7106,-4.7183,-4.7188,-4.7201,-4.7235,-4.7256,-4.7282,-4.7293,-4.7288,-4.7303,-4.7281,-4.7322,-4.7275,-4.7331,-4.7292,-4.7306,-4.7306,-4.7309,-4.7311,-4.7259,-4.7338,-4.7474,-4.7487,-4.7314,-4.7313,-4.7311,0,-4.7178,-4.7224,-4.7275,-4.7284,-4.7292,-4.7317,-4.7321,-4.7329,-4.7345,-4.7364,-4.7374,-4.7397,-4.7409,-4.7427,-4.7412,-4.738,-4.747,-4.7422,-4.7466,-4.7467,-4.7486,-4.7485,-4.7625,-4.7497,-4.7497,-4.7496,-4.7496,0,-4.7287,-4.7335,-4.7317,-4.7348,-4.74,-4.738,-4.7432,-4.7432,-4.7439,-4.7469,-4.744,-4.7469,-4.7448,-4.7474,-4.7463,-4.751,-4.7516,-4.7512,-4.7508,-4.7515,-4.7515,-4.7523,-4.7516,-4.75,-4.7499,-4.7498,-4.7498,0,-4.7398,-4.7388,-4.7442,-4.7445,-4.7446,-4.7485,-4.7487,-4.7515,-4.7509,-4.7547,-4.7555,-4.7546,-4.7575,-4.7562,-4.7593,-4.7586,-4.7646,-4.7634,-4.7642,-4.7639,-4.7684,-4.7679,-4.7833,-4.7851,-4.7712,-4.7714,-4.7715,0,-4.7469,-4.7504,-4.7511,-4.7529,-4.7536,-4.7566,-4.7582,-4.7563,-4.7581,-4.7596,-4.7622,-4.7649,-4.767,-4.7719,-4.7714,-4.7737,-4.7726,-4.7778,-4.7729,-4.7733,-4.7725,-4.7723,-4.7726,-4.7787,-4.7789,-4.779,-4.7791,0,-4.7594,-4.7587,-4.7612,-4.7635,-4.7655,-4.7672,-4.7686,-4.7703,-4.7685,-4.7706,-4.7736,-4.7752,-4.7784,-4.781,-4.7831,-4.7834,-4.781,-4.7807,-4.7818,-4.7824,-4.7827,-4.7825,-4.7668,-4.7803,-4.7802,-4.7801,-4.78,-4.78,-4.7686,-4.7716,-4.7725,-4.7753,-4.7762,-4.7776,-4.7803,-4.78,-4.7825,-4.7849,-4.7837,-4.7871,-4.788,-4.7905,-4.7911,-4.7937,-4.7917,-4.7933,-4.7937,-4.7941,-4.7947,-4.7824,-4.7941,-4.7941,-4.794,-4.794,-4.794,0,-4.7809,-4.7813,-4.7839,-4.786,-4.7882,-4.7857,-4.7872,-4.7891,-4.7922,-4.7933,-4.7954,-4.7987,-4.8013,-4.801,-4.8034,-4.8055,-4.8044,-4.8062,-4.8059,-4.806,-4.7965,-4.7952,-4.807,-4.807,-4.807,-4.807,-4.807,-4.807,-4.7875,-4.7924,-4.7918,-4.797,-4.7973,-4.8007,-4.8017,-4.8029,-4.8037,-4.8077,-4.8098,-4.8096,-4.8101,-4.8124,-4.8146,-4.8144,-4.8154,-4.8175,-4.817,-4.808,-4.8067,-4.8055,-4.8043,-4.8178,-4.8178,-4.8263,-4.8264,-4.8264]}]]